EW1062 Weather Reports


Display with metric or nautical units.
time (UTC)temp
F
wind
direction
speed
MPH
gust
MPH
rain 1hr
in
rain 24hr
in
rain mn
in
humidity
%
barometer
mb
20210730133230 82 351 2.0 0.0 0.00 0.00 0.00 78 1012.0
20210730131649 81 319 1.0 0.0 0.00 0.00 0.00 80 1011.6
20210730130058 80 279 0.0 0.0 0.00 0.00 0.00 83 1011.3
20210730124608 78 244 0.0 0.0 0.00 0.00 0.00 88 1011.3
20210730123145 77 244 1.0 0.0 0.00 0.00 0.00 90 1011.2
20210730121617 77 244 0.0 0.0 0.00 0.00 0.00 91 1010.9
20210730120134 76 244 0.0 0.0 0.00 0.00 0.00 93 1010.5
20210730114710 76 244 0.0 0.0 0.00 0.00 0.00 94 1010.1
20210730113058 76 244 1.0 0.0 0.00 0.00 0.00 93 1009.7
20210730111638 76 244 1.0 0.0 0.00 0.00 0.00 91 1009.4
20210730110106 77 269 2.0 0.0 0.00 0.00 0.00 90 1009.3
20210730104657 77 268 3.0 0.0 0.00 0.00 0.00 88 1009.4
20210730103050 77 268 2.0 0.0 0.00 0.00 0.00 88 1009.3
20210730101559 77 209 2.0 0.0 0.00 0.00 0.00 91 1009.3
20210730100100 77 202 3.0 0.0 0.00 0.00 0.00 94 1009.1
20210730094601 77 202 4.0 0.0 0.00 0.00 0.00 94 1009.2
20210730093116 77 202 3.0 0.0 0.00 0.00 0.00 92 1009.1
20210730091614 77 202 3.0 0.0 0.00 0.00 0.00 91 1009.4
20210730090137 77 202 2.0 0.0 0.00 0.00 0.00 92 1009.5
20210730084638 78 202 1.0 0.0 0.00 0.00 0.00 92 1009.9
20210730083134 78 202 1.0 0.0 0.00 0.00 0.00 92 1010.0
20210730081607 78 202 1.0 0.0 0.00 0.00 0.00 91 1010.0
20210730080048 78 202 1.0 0.0 0.00 0.00 0.00 91 1010.2
20210730074558 78 202 1.0 0.0 0.00 0.00 0.00 90 1010.2
20210730073142 79 202 1.0 0.0 0.00 0.00 0.00 90 1010.4
20210730071539 79 202 0.0 0.0 0.00 0.00 0.00 91 1010.5
20210730070104 78 202 1.0 0.0 0.00 0.00 0.00 92 1010.5
20210730064644 78 202 0.0 0.0 0.00 0.00 0.00 94 1010.4
20210730063119 78 202 0.0 0.0 0.00 0.00 0.00 94 1010.7
20210730061644 79 202 0.0 0.0 0.00 0.00 0.00 94 1010.7
20210730060046 79 202 2.0 0.0 0.00 0.00 0.00 93 1010.5
20210730054607 79 204 1.0 0.0 0.00 0.00 0.00 93 1010.7
20210730053023 79 204 1.0 0.0 0.00 0.00 0.00 93 1010.8
20210730051544 80 205 1.0 0.0 0.00 0.00 0.00 92 1010.8
20210730050056 80 209 1.0 0.0 0.00 0.00 0.00 90 1011.0
20210730044530 80 211 0.0 0.0 0.00 0.00 0.00 90 1010.9
20210730043030 80 211 0.0 0.0 0.00 0.00 0.00 90 1011.0
20210730041644 80 211 0.0 0.0 0.00 0.00 0.00 90 1010.9
20210730040034 81 211 0.0 0.0 0.00 0.00 0.00 88 1010.4
20210730034535 81 211 0.0 0.0 0.00 0.00 0.00 87 1010.0
20210730033103 81 211 0.0 0.0 0.00 0.00 0.00 86 1010.0
20210730031519 82 211 0.0 0.0 0.00 0.00 0.00 85 1009.8
20210730030019 82 211 0.0 0.0 0.00 0.00 0.00 84 1009.8
20210730024520 82 211 0.0 0.0 0.00 0.00 0.00 83 1009.8
20210730023020 83 211 0.0 0.0 0.00 0.00 0.00 81 1009.6
20210730021558 83 211 0.0 0.0 0.00 0.00 0.00 79 1009.5
20210730020028 84 211 0.0 0.0 0.00 0.00 0.00 78 1009.5
20210730014521 84 211 1.0 0.0 0.00 0.00 0.00 77 1009.4
20210730013015 84 213 1.0 0.0 0.00 0.00 0.00 77 1009.4
20210730011539 85 213 0.0 0.0 0.00 0.00 0.00 74 1009.7
20210730010043 86 213 2.0 0.0 0.00 0.00 0.00 72 1009.7
20210730004517 87 213 1.0 0.0 0.00 0.00 0.00 71 1009.6
20210730003019 87 213 2.0 0.0 0.00 0.00 0.00 69 1009.6
20210730001523 88 213 2.0 0.0 0.00 0.00 0.00 69 1009.5
20210730000044 89 216 2.0 0.0 0.00 0.00 0.00 67 1009.4
20210729234525 89 215 2.0 0.0 0.00 0.00 0.00 67 1009.4
20210729233030 89 227 3.0 0.0 0.00 0.00 0.00 66 1009.4
20210729231537 89 229 3.0 0.0 0.00 0.00 0.00 67 1009.4
20210729230018 89 238 3.0 0.0 0.00 0.00 0.00 65 1009.5
20210729224509 91 230 3.0 0.0 0.00 0.00 0.00 61 1009.6
20210729223026 91 256 4.0 0.0 0.00 0.00 0.00 59 1009.6
20210729221516 92 225 3.0 0.0 0.00 0.00 0.00 60 1009.6
20210729220008 91 217 2.0 0.0 0.00 0.00 0.00 61 1009.6
20210729214519 91 259 3.0 0.0 0.00 0.00 0.00 59 1009.7
20210729213018 93 249 4.0 0.0 0.00 0.00 0.00 57 1009.9
20210729211523 93 218 3.0 0.0 0.00 0.00 0.00 56 1010.1
20210729210007 93 273 4.0 0.0 0.00 0.00 0.00 54 1010.2
20210729204516 92 220 3.0 0.0 0.00 0.00 0.00 56 1010.2
20210729203008 93 242 3.0 0.0 0.00 0.00 0.00 55 1010.4
20210729201502 92 253 3.0 0.0 0.00 0.00 0.00 55 1010.5
20210729200010 93 223 3.0 0.0 0.00 0.00 0.00 53 1010.5
20210729194658 93 290 3.0 0.0 0.00 0.00 0.00 52 1010.5
20210729193155 93 267 3.0 0.0 0.00 0.00 0.00 52 1010.6
20210729191638 92 265 3.0 0.0 0.00 0.00 0.00 53 1010.8
20210729190238 92 219 4.0 0.0 0.00 0.00 0.00 54 1010.9
20210729184936 92 238 2.0 0.0 0.00 0.00 0.00 54 1011.0
20210729183252 92 262 3.0 0.0 0.00 0.00 0.00 50 1011.2
20210729181648 92 240 3.0 0.0 0.00 0.00 0.00 53 1011.2
20210729180204 91 254 3.0 0.0 0.00 0.00 0.00 54 1011.4
20210729174628 92 231 3.0 0.0 0.00 0.00 0.00 53 1011.5
20210729173141 92 266 2.0 0.0 0.00 0.00 0.00 53 1011.6
20210729171650 91 261 3.0 0.0 0.00 0.00 0.00 54 1012.0
20210729170220 91 246 2.0 0.0 0.00 0.00 0.00 52 1012.2
20210729164622 91 281 2.0 0.0 0.00 0.00 0.00 51 1012.6
20210729163133 91 239 4.0 0.0 0.00 0.00 0.00 54 1012.7
20210729161624 90 227 3.0 0.0 0.00 0.00 0.00 53 1013.0
20210729160134 90 244 3.0 0.0 0.00 0.00 0.00 55 1013.0
20210729154649 90 232 2.0 0.0 0.00 0.00 0.00 56 1012.9
20210729153107 90 238 2.0 0.0 0.00 0.00 0.00 57 1012.7
20210729151611 89 258 1.0 0.0 0.00 0.00 0.00 56 1012.8
20210729150108 88 244 1.0 0.0 0.00 0.00 0.00 60 1012.6
20210729144734 86 278 2.0 0.0 0.00 0.00 0.00 68 1012.6
20210729143115 85 306 1.0 0.0 0.00 0.00 0.00 68 1012.5
20210729141543 83 360 2.0 0.0 0.00 0.00 0.00 74 1012.5
20210729140151 82 360 2.0 0.0 0.00 0.00 0.00 77 1012.5